This is the latest recevied weather packets stored in our database for station/object S51UL-6. If no packets are shown the sender has not sent any weather packets the latest 10 day(s).
| Time | Temp. | Humidity | Pressure | Rain* | Wind** | Luminosity | Snow |
|---|---|---|---|---|---|---|---|
| 1777649674 | 18.89° C | 37% | 1026.2 hPa | 0 mm | - | - | - |
| 1777649073 | 18.89° C | 38% | 1026 hPa | 0 mm | - | - | - |
| 1777648773 | 18.33° C | 38% | 1026.3 hPa | 0 mm | - | - | - |
| 1777648474 | 18.33° C | 37% | 1026.3 hPa | 0 mm | - | - | - |
| 1777647874 | 18.89° C | 36% | 1026.3 hPa | 0 mm | - | - | - |
| 1777647276 | 19.44° C | 36% | 1026.2 hPa | 0 mm | - | - | - |
| 1777646974 | 19.44° C | 36% | 1026.3 hPa | 0 mm | - | - | - |
| 1777646675 | 19.44° C | 36% | 1026.4 hPa | 0 mm | - | - | - |
| 1777646372 | 19.44° C | 36% | 1026.5 hPa | 0 mm | - | - | - |
| 1777646075 | 19.44° C | 36% | 1026.5 hPa | 0 mm | - | - | - |
| 1777645474 | 20° C | 34% | 1026.6 hPa | 0 mm | - | - | - |
| 1777644574 | 20.56° C | 34% | 1026.7 hPa | 0 mm | - | - | - |
| 1777644274 | 20.56° C | 35% | 1026.6 hPa | 0 mm | - | - | - |
| 1777643975 | 20.56° C | 34% | 1026.7 hPa | 0 mm | - | - | - |
| 1777642775 | 20.56° C | 35% | 1027 hPa | 0 mm | - | - | - |
| 1777642474 | 20° C | 35% | 1027 hPa | 0 mm | - | - | - |
| 1777642175 | 20° C | 35% | 1027.2 hPa | 0 mm | - | - | - |
| 1777641875 | 20° C | 35% | 1027.3 hPa | 0 mm | - | - | - |
| 1777641575 | 20.56° C | 34% | 1027.3 hPa | 0 mm | - | - | - |
| 1777641275 | 20.56° C | 35% | 1027.3 hPa | 0 mm | - | - | - |
| 1777640975 | 20.56° C | 35% | 1027.4 hPa | 0 mm | - | - | - |
| 1777640375 | 19.44° C | 36% | 1027.4 hPa | 0 mm | - | - | - |
| 1777639776 | 20° C | 34% | 1027.7 hPa | 0 mm | - | - | - |
| 1777639475 | 20° C | 33% | 1027.8 hPa | 0 mm | - | - | - |
| 1777639176 | 21.11° C | 32% | 1027.7 hPa | 0 mm | - | - | - |
* Rain latest hour (hover to see other rain measurements)
** Current wind speed in m/s (hover to see current wind gust speed)